• In Latvia
  • List of Countries
  • For 7 days
  • Water Temperature
  • Satellite Maps
  • Weather Map
  • Weather Widgets
  • user-avatar
    Login

    Hourly Weather Mayrhofen

    Today, 19 August, Saturday

    Time Temperature Precipitation Wind Pressure Humidity
    00:00 +12°C° 1.7 mm 1 mps 620 mmHg 97%
    01:00 +12°C° 0 mm 1 mps 620 mmHg 98%
    02:00 +12°C° 2.5 mm 1 mps 620 mmHg 97%
    03:00 +12°C° 2.5 mm 1 mps 620 mmHg 97%
    04:00 +12°C° 2.5 mm 1 mps 620 mmHg 97%
    05:00 +12°C° 1.6 mm 1 mps 620 mmHg 96%
    06:00 +12°C° 1.6 mm 1 mps 620 mmHg 96%
    07:00 +12°C° 1.6 mm 1 mps 620 mmHg 95%
    08:00 +12°C° 1 mm 1 mps 620 mmHg 94%
    09:00 +12°C° 1 mm 1 mps 620 mmHg 93%
    10:00 +12°C° 1 mm 1 mps 620 mmHg 92%
    11:00 +12°C° 0.8 mm 1 mps 620 mmHg 91%
    12:00 +12°C° 0.8 mm 2 mps 620 mmHg 91%
    13:00 +12°C° 0.8 mm 2 mps 620 mmHg 90%
    14:00 +12°C° 1.3 mm 2 mps 620 mmHg 90%
    15:00 +12°C° 1.3 mm 2 mps 620 mmHg 91%
    16:00 +10°C° 1.3 mm 2 mps 620 mmHg 92%
    17:00 +10°C° 1.5 mm 2 mps 620 mmHg 93%
    18:00 +9°C° 1.5 mm 2 mps 620 mmHg 94%
    19:00 +8°C° 1.5 mm 2 mps 620 mmHg 96%
    20:00 +8°C° 0.7 mm 2 mps 620 mmHg 96%
    21:00 +7°C° 0.7 mm 2 mps 620 mmHg 96%
    22:00 +7°C° 0.7 mm 2 mps 620 mmHg 96%
    23:00 +6°C° 0.1 mm 2 mps 620 mmHg 96%

    Tomorrow, 20 August, Sunday

    Time Temperature Precipitation Wind Pressure Humidity
    00:00 +6°C° 0.1 mm 2 mps 620 mmHg 96%
    01:00 +5°C° 0.1 mm 2 mps 620 mmHg 96%
    02:00 +5°C° 0.1 mm 2 mps 620 mmHg 96%
    03:00 +5°C° 0.1 mm 2 mps 620 mmHg 96%
    04:00 +5°C° 0.1 mm 2 mps 620 mmHg 96%
    05:00 +5°C° 0.1 mm 2 mps 620 mmHg 95%
    06:00 +6°C° 0.1 mm 2 mps 620 mmHg 93%
    07:00 +6°C° 0.1 mm 2 mps 621 mmHg 92%
    08:00 +7°C° 0.1 mm 2 mps 621 mmHg 85%
    09:00 +9°C° 0.1 mm 2 mps 622 mmHg 79%
    10:00 +10°C° 0.1 mm 2 mps 622 mmHg 73%
    11:00 +12°C° 0.1 mm 2 mps 622 mmHg 67%
    12:00 +13°C° 0.1 mm 2 mps 623 mmHg 61%
    13:00 +14°C° 0.1 mm 2 mps 623 mmHg 55%
    14:00 +14°C° 0.1 mm 2 mps 623 mmHg 56%
    15:00 +14°C° 0.1 mm 2 mps 623 mmHg 56%
    16:00 +13°C° 0.1 mm 3 mps 623 mmHg 56%
    17:00 +12°C° 0.1 mm 2 mps 622 mmHg 65%
    18:00 +9°C° 0.1 mm 2 mps 622 mmHg 75%
    19:00 +8°C° 0.1 mm 2 mps 621 mmHg 85%
    20:00 +7°C° 0 mm 2 mps 622 mmHg 87%
    21:00 +6°C° 0 mm 2 mps 622 mmHg 90%
    22:00 +6°C° 0 mm 2 mps 622 mmHg 93%
    23:00 +6°C° 0 mm 1 mps 622 mmHg 93%

    Day after tomorrow, 21 August, Monday

    Time Temperature Precipitation Wind Pressure Humidity
    00:00 +6°C° 0 mm 1 mps 622 mmHg 93%
    01:00 +5°C° 0 mm 1 mps 621 mmHg 94%
    02:00 +5°C° 0 mm 1 mps 621 mmHg 94%
    03:00 +4°C° 0 mm 1 mps 621 mmHg 94%
    04:00 +4°C° 0 mm 1 mps 620 mmHg 94%
    05:00 +5°C° 0 mm 1 mps 621 mmHg 89%
    06:00 +6°C° 0 mm 1 mps 621 mmHg 84%
    07:00 +7°C° 0 mm 1 mps 622 mmHg 79%
    08:00 +9°C° 0 mm 1 mps 622 mmHg 67%
    09:00 +12°C° 0 mm 2 mps 623 mmHg 56%
    10:00 +14°C° 0 mm 2 mps 624 mmHg 45%
    11:00 +15°C° 0 mm 2 mps 624 mmHg 42%
    12:00 +16°C° 0 mm 2 mps 624 mmHg 40%
    13:00 +17°C° 0 mm 2 mps 624 mmHg 37%
    14:00 +16°C° 0 mm 2 mps 624 mmHg 39%
    15:00 +16°C° 0 mm 3 mps 624 mmHg 42%
    16:00 +16°C° 0 mm 3 mps 623 mmHg 44%
    17:00 +14°C° 0 mm 2 mps 623 mmHg 56%
    18:00 +12°C° 0 mm 2 mps 622 mmHg 68%
    19:00 +8°C° 0 mm 2 mps 621 mmHg 80%
    20:00 +8°C° 0 mm 1 mps 621 mmHg 84%
    21:00 +7°C° 0 mm 1 mps 621 mmHg 88%
    22:00 +6°C° 0 mm 1 mps 621 mmHg 93%
    23:00 +6°C° 0 mm 1 mps 621 mmHg 92%

    22 August, Tuesday

    Time Temperature Precipitation Wind Pressure Humidity
    00:00 +5°C° 0 mm 1 mps 621 mmHg 91%
    01:00 +5°C° 0 mm 1 mps 620 mmHg 91%
    02:00 +5°C° 0 mm 1 mps 620 mmHg 88%
    03:00 +5°C° 0 mm 1 mps 620 mmHg 86%
    04:00 +5°C° 0 mm 1 mps 620 mmHg 84%
    05:00 +6°C° 0 mm 1 mps 621 mmHg 77%
    06:00 +8°C° 0 mm 1 mps 621 mmHg 71%
    07:00 +9°C° 0 mm 1 mps 622 mmHg 64%
    08:00 +12°C° 0 mm 1 mps 622 mmHg 57%
    09:00 +14°C° 0 mm 1 mps 623 mmHg 50%
    10:00 +16°C° 0 mm 1 mps 624 mmHg 43%
    11:00 +18°C° 0 mm 1 mps 624 mmHg 42%
    12:00 +18°C° 0 mm 2 mps 624 mmHg 42%
    13:00 +19°C° 0 mm 2 mps 624 mmHg 41%
    14:00 +19°C° 0 mm 2 mps 624 mmHg 44%
    15:00 +19°C° 0 mm 2 mps 623 mmHg 46%
    16:00 +19°C° 0 mm 2 mps 623 mmHg 49%
    17:00 +16°C° 0 mm 2 mps 622 mmHg 61%
    18:00 +14°C° 0 mm 2 mps 621 mmHg 72%
    19:00 +11°C° 0 mm 1 mps 620 mmHg 84%
    20:00 +10°C° 0 mm 1 mps 620 mmHg 87%
    21:00 +9°C° 0 mm 1 mps 620 mmHg 90%
    22:00 +8°C° 0 mm 1 mps 620 mmHg 92%
    23:00 +8°C° 0 mm 1 mps 620 mmHg 91%

    23 August, Wednesday

    Time Temperature Precipitation Wind Pressure Humidity
    00:00 +8°C° 0 mm 1 mps 619 mmHg 90%
    01:00 +8°C° 0 mm 1 mps 619 mmHg 90%
    02:00 +8°C° 0 mm 1 mps 619 mmHg 88%
    03:00 +8°C° 0 mm 1 mps 619 mmHg 87%
    04:00 +8°C° 0 mm 1 mps 619 mmHg 86%
    05:00 +9°C° 0 mm 1 mps 619 mmHg 80%
    06:00 +11°C° 0 mm 1 mps 620 mmHg 75%
    07:00 +12°C° 0 mm 1 mps 621 mmHg 69%
    08:00 +15°C° 0 mm 1 mps 622 mmHg 59%
    09:00 +18°C° 0 mm 1 mps 623 mmHg 48%
    10:00 +21°C° 0 mm 1 mps 624 mmHg 38%
    11:00 +22°C° 0 mm 1 mps 624 mmHg 36%
    12:00 +22°C° 0 mm 1 mps 624 mmHg 34%
    13:00 +23°C° 0 mm 2 mps 624 mmHg 32%
    14:00 +23°C° 0 mm 2 mps 624 mmHg 34%
    15:00 +23°C° 0 mm 2 mps 623 mmHg 36%
    16:00 +21°C° 0 mm 2 mps 623 mmHg 38%
    17:00 +19°C° 0.1 mm 2 mps 622 mmHg 50%
    18:00 +16°C° 0.1 mm 1 mps 621 mmHg 63%
    19:00 +13°C° 0.1 mm 1 mps 621 mmHg 75%
    20:00 +12°C° 0 mm 1 mps 620 mmHg 77%
    21:00 +11°C° 0 mm 1 mps 620 mmHg 78%
    22:00 +10°C° 0 mm 1 mps 620 mmHg 80%
    23:00 +10°C° 0 mm 1 mps 620 mmHg 79%

    24 August, Thursday

    Time Temperature Precipitation Wind Pressure Humidity
    00:00 +10°C° 0 mm 1 mps 620 mmHg 78%
    01:00 +10°C° 0 mm 1 mps 620 mmHg 77%
    02:00 +10°C° 0 mm 1 mps 620 mmHg 77%
    03:00 +10°C° 0 mm 1 mps 620 mmHg 76%
    04:00 +10°C° 0 mm 1 mps 620 mmHg 76%
    05:00 +11°C° 0 mm 1 mps 620 mmHg 73%
    06:00 +12°C° 0 mm 1 mps 621 mmHg 70%
    07:00 +14°C° 0 mm 1 mps 622 mmHg 67%
    08:00 +16°C° 0 mm 1 mps 623 mmHg 59%
    09:00 +19°C° 0 mm 1 mps 624 mmHg 52%
    10:00 +22°C° 0 mm 1 mps 624 mmHg 44%
    11:00 +21°C° 0.1 mm 1 mps 624 mmHg 45%
    12:00 +20°C° 0.1 mm 2 mps 624 mmHg 47%
    13:00 +20°C° 0.1 mm 2 mps 624 mmHg 49%
    14:00 +20°C° 0.2 mm 2 mps 624 mmHg 50%
    15:00 +20°C° 0.2 mm 2 mps 624 mmHg 51%
    16:00 +20°C° 0.2 mm 2 mps 624 mmHg 53%
    17:00 +18°C° 0.4 mm 2 mps 623 mmHg 63%
    18:00 +16°C° 0.4 mm 1 mps 622 mmHg 74%
    19:00 +14°C° 0.4 mm 1 mps 622 mmHg 84%
    20:00 +13°C° 0.3 mm 1 mps 622 mmHg 86%
    21:00 +13°C° 0.3 mm 1 mps 622 mmHg 87%
    22:00 +12°C° 0.3 mm 2 mps 622 mmHg 88%
    23:00 +12°C° 0 mm 2 mps 621 mmHg 89%
    Show more